RH
20 21 24 28 29 29 29 29 30 32 32 32 31 32 36 42 48 52 54 55 55 55 55 54 51 48 47 47 47 47 46 46 47 48 50 51 49 46 45 48 50 51 51 51 51 50 51 56 57 56 55 55
25 23 22 22 22 22 22 21 22 22 24 25 25 25 27 32 37 43 47 50 53 56 57 59 60 58 57 56 55 53 53 52 52 52 53 56 55 52 51 53 54 52 51 53 55 54 54 57 56 56 56 54
32 31 29 28 26 25 25 24 22 20 20 19 18 18 20 22 25 28 32 35 38 41 44 47 50 52 53 53 53 52 54 55 56 58 58 60 61 61 61 62 65 63 59 56 58 59 59 59 59 60 61 60
36 36 36 35 34 34 33 32 30 26 25 23 20 18 17 18 18 19 20 23 24 26 27 29 31 34 34 34 35 35 37 40 43 46 50 56 61 66 67 68 71 74 73 69 66 65 65 64 63 63 62 61
34 34 36 36 37 38 38 38 37 35 33 31 28 25 23 22 20 19 18 18 18 19 20 21 22 23 23 23 23 23 23 24 24 26 29 35 43 53 60 63 68 72 75 75 74 73 73 72 70 67 66 64
31 30 31 32 35 38 39 40 41 41 40 39 37 35 33 31 29 26 23 21 20 18 17 17 18 19 19 20 19 19 19 19 19 19 20 22 25 32 39 44 48 52 55 57 60 62 63 63 63 62 61 60
34 32 31 29 30 33 35 38 42 44 45 44 45 45 44 42 41 39 35 32 29 26 24 21 19 18 18 19 19 20 19 19 20 20 20 20 21 22 24 27 29 31 32 33 35 36 38 41 43 45 45 44
48 43 39 35 32 31 31 32 37 42 46 48 48 48 48 48 48 48 45 42 40 38 37 34 30 27 24 23 22 22 22 22 22 22 22 23 23 23 22 22 23 23 23 23 23 24 26 28 30 31 30 29
61 58 53 48 43 39 35 32 32 33 37 41 43 43 43 43 43 44 44 42 41 41 42 43 42 40 37 35 33 30 29 29 29 28 27 28 29 29 27 24 23 22 21 21 21 21 22 23 24 25 25 24
53 55 56 55 54 51 48 44 41 38 36 35 35 35 34 34 34 35 36 36 36 36 38 40 42 44 45 45 44 43 40 38 37 37 37 38 38 37 35 33 29 24 22 22 22 23 23 23 22 22 22 22
36 39 43 46 49 51 51 50 49 48 46 44 41 39 37 36 35 35 35 36 36 37 39 41 43 45 46 47 48 49 48 46 45 44 45 46 48 48 47 45 39 32 28 26 26 26 26 25 23 22 22 22
20 23 26 30 34 38 41 43 44 45 46 46 45 44 44 43 42 42 42 42 42 42 42 42 42 40 38 37 37 39 41 43 44 44 45 46 48 48 50 50 47 44 40 35 32 32 31 30 27 25 25 25
14 15 16 17 20 23 26 28 31 34 35 37 38 39 40 40 41 41 41 41 40 40 39 37 35 33 30 28 28 28 29 31 33 34 35 35 36 37 39 41 41 42 43 42 41 40 40 39 37 35 34 33
15 14 14 14 14 15 16 17 18 20 22 24 26 28 29 31 32 33 33 34 34 33 33 32 31 30 29 28 26 25 25 25 25 26 26 26 26 27 28 29 30 32 35 38 40 40 41 42 42 41 39 38
16 15 15 15 15 15 14 14 15 14 15 15 16 17 18 19 20 21 22 23 24 24 25 25 25 25 25 24 23 22 21 21 20 21 21 22 22 22 23 24 25 26 28 30 33 36 37 38 39 39 38 37
17 17 17 16 16 16 15 15 15 15 14 14 14 14 14 14 14 15 15 15 16 16 17 17 18 18 18 18 19 19 18 18 17 17 18 18 19 20 21 22 23 24 25 26 27 30 31 33 34 35 35 33
18 18 18 18 18 17 17 16 16 16 16 15 15 14 14 14 14 14 14 13 14 13 14 14 14 14 14 15 15 15 15 15 15 16 16 16 17 18 18 19 20 22 22 23 24 24 26 26 28 29 29 29
19 19 19 20 20 20 19 18 18 17 17 16 16 16 15 15 15 15 14 14 14 13 13 13 13 13 13 13 13 13 13 13 13 13 13 13 14 14 15 15 16 17 18 19 20 20 21 21 22 23 24 25
22 21 20 21 21 22 22 21 21 20 19 19 18 17 17 16 16 16 15 15 15 14 14 14 14 13 13 13 13 13 13 13 12 12 12 12 12 12 12 12 13 14 14 15 16 16 17 17 18 18 19 20
26 24 23 23 22 23 24 25 24 23 22 21 20 20 19 19 18 17 17 17 16 16 15 15 15 14 14 14 13 13 13 13 13 13 13 13 13 13 13 12 12 12 12 13 13 13 14 14 15 15 16 16
31 29 27 25 25 26 27 28 28 28 26 25 24 23 22 22 21 20 19 19 18 18 17 17 16 16 15 15 14 14 14 14 14 14 13 13 13 13 13 13 13 13 12 12 12 13 13 13 13 13 14 14
35 33 31 29 28 28 30 31 31 32 31 30 29 29 28 26 25 24 23 22 21 20 19 18 18 17 17 16 16 15 15 15 14 14 14 14 14 14 14 14 14 14 13 13 13 13 13 13 13 13 13 13
40 37 36 34 33 32 33 36 37 38 38 36 35 34 33 32 31 29 27 25 24 23 22 20 20 19 18 18 17 17 16 16 15 15 15 14 14 14 14 14 14 14 14 14 14 13 13 13 13 13 13 13
45 42 40 40 39 38 38 40 43 46 47 47 46 42 39 37 36 35 32 30 28 26 25 23 22 21 20 20 19 19 18 18 17 16 16 16 15 15 15 15 14 15 14 15 15 14 14 14 14 13 13 13
49 46 44 44 45 44 44 45 47 51 54 57 58 56 52 46 42 41 39 36 32 30 28 27 26 25 25 23 22 21 20 19 19 18 18 17 17 16 16 16 15 15 15 15 15 15 15 15 15 15 14 14
50 48 47 47 48 49 49 49 50 53 57 61 65 68 69 66 59 53 48 44 38 34 32 31 31 31 30 28 26 25 23 22 21 20 19 19 18 18 17 17 16 16 16 16 15 15 16 16 16 16 16 16
53 51 49 48 50 53 55 55 54 55 57 61 66 72 78 82 80 72 64 56 48 42 39 38 37 37 35 33 32 29 27 26 24 22 21 20 20 19 19 19 18 18 17 17 17 16 16 16 16 17 17 17
55 54 53 51 51 55 60 61 60 61 61 63 68 73 79 86 90 89 83 75 66 60 56 52 50 47 44 40 37 35 32 30 28 26 24 23 22 22 21 20 20 20 19 19 19 18 18 17 17 17 18 18
56 56 57 56 56 58 62 66 67 69 70 70 72 76 82 87 91 95 95 93 88 83 79 74 69 63 58 52 47 42 38 36 34 31 28 27 25 24 23 22 22 22 21 21 21 21 20 20 20 19 19 19
58 59 61 63 63 63 67 72 75 76 77 78 78 79 82 88 93 97 98 98 96 93 89 84 79 74 69 63 58 53 48 45 43 40 35 32 30 28 26 25 24 23 23 23 23 23 23 23 22 22 22 21
62 64 67 69 72 73 76 81 83 83 82 80 79 78 78 82 89 95 98 99 99 96 93 88 83 78 73 69 65 62 58 55 51 47 42 38 35 33 31 29 28 27 26 26 26 25 25 25 25 25 25 24
Wind_Speed
87 87 88 88 88 87 87 87 87 87 86 85 85 85 85 84 84 83 84 84 84 85 85 86 86 86 87 87 87 88 87 87 87 87 87 88 88 87 87 87 88 89 90 90 91 90 90 90 91 91 91 91
86 86 87 88 89 89 89 89 90 90 91 90 89 89 88 88 87 87 86 86 86 86 86 87 87 87 88 88 89 89 89 90 90 90 90 90 90 89 89 89 90 91 91 91 90 90 90 91 91 91 92 92
88 88 88 88 88 89 88 88 89 90 91 91 92 91 90 90 90 90 90 90 89 89 88 88 88 88 88 88 89 89 90 90 90 91 91 92 92 92 92 93 93 95 95 94 94 94 94 94 94 94 94 94
93 92 92 91 91 91 91 90 89 89 89 90 90 91 91 91 92 92 92 92 92 92 91 91 91 91 90 90 91 91 91 91 90 91 91 92 93 94 95 95 96 97 98 98 97 97 97 97 97 97 97 97
97 97 97 96 95 95 94 94 93 92 92 91 91 91 91 92 92 92 93 93 94 94 94 94 94 94 94 94 94 94 93 93 92 91 92 93 95 95 95 96 97 98 99 99 98 99 99 99 99 99 99 99
101 101 101 100 99 99 98 98 97 97 96 96 95 94 94 94 93 93 93 93 94 94 95 95 96 96 96 96 96 96 96 95 94 94 94 96 96 96 97 99 99 99 100 99 99 100 100 101 101 100 100 100
104 105 104 104 103 103 102 102 101 101 101 100 99 99 98 98 97 96 96 96 96 96 96 96 96 97 97 97 97 97 97 97 96 96 96 98 98 98 101 102 102 102 102 101 101 102 103 103 102 101 102 102
107 108 107 107 106 106 106 105 105 105 105 104 104 103 103 102 102 101 100 100 99 99 99 98 98 98 98 98 98 98 98 98 98 97 97 98 101 102 105 106 105 104 104 104 104 105 105 105 104 104 103 103
109 110 110 110 109 109 109 108 108 109 109 108 108 108 107 107 106 106 105 105 104 104 103 103 102 102 102 102 102 101 101 101 100 100 99 101 104 106 107 108 108 108 107 106 106 107 108 108 108 107 106 106
106 108 109 110 111 111 112 112 112 112 112 112 112 111 111 111 110 110 109 109 109 109 109 108 108 108 107 107 107 107 106 106 105 104 104 105 108 109 109 111 112 111 108 107 108 109 110 111 111 110 109 109
102 105 106 108 109 110 111 113 114 114 115 115 115 115 115 114 114 114 113 113 113 113 113 113 113 113 113 112 112 112 112 111 110 109 109 109 111 112 112 115 115 113 111 110 111 111 113 113 113 112 112 112
99 101 103 104 106 107 108 110 112 113 115 116 116 117 117 117 117 117 117 117 117 117 117 117 117 117 117 117 116 116 116 115 115 114 113 113 114 115 116 118 117 116 115 115 114 114 115 116 116 115 115 115
97 98 100 101 102 104 105 107 108 110 112 113 114 115 116 117 118 118 119 119 119 120 120 120 120 120 120 119 119 118 118 118 118 117 117 117 117 118 119 120 120 119 119 118 118 118 118 119 118 118 118 118
94 95 97 98 99 100 102 103 105 106 108 109 110 112 113 114 115 116 117 118 119 119 120 120 121 121 121 121 120 120 119 119 119 118 119 119 119 120 120 121 122 122 121 121 121 121 121 121 121 121 121 121
90 92 94 95 96 97 98 100 101 103 104 105 106 108 109 110 111 113 114 114 115 116 116 117 118 118 119 119 119 120 120 119 119 119 119 119 119 119 120 121 122 123 123 123 123 123 124 124 124 124 124 124
86 88 90 92 93 94 96 96 98 99 101 102 103 104 105 106 107 108 109 110 111 112 112 113 114 114 115 115 116 117 118 118 119 119 119 119 119 119 119 120 121 122 123 123 123 124 125 125 125 126 126 126
82 84 85 87 89 91 92 94 95 96 97 99 100 101 102 103 104 104 105 106 107 108 109 109 110 111 111 112 113 114 114 115 116 117 118 119 119 119 119 119 120 121 122 122 123 124 124 125 125 126 127 127
79 81 82 83 85 86 88 90 91 92 94 95 97 98 99 100 101 102 103 104 104 105 106 107 108 108 109 109 110 111 111 112 113 114 115 117 118 119 119 119 119 119 120 121 121 122 123 124 125 125 126 126
75 78 79 80 81 82 83 85 87 88 90 91 93 95 96 97 98 99 100 101 102 103 104 105 105 106 107 107 108 108 109 109 110 111 112 113 114 116 117 118 118 118 118 118 119 119 120 121 122 123 124 125
72 74 77 79 80 80 81 81 83 84 86 87 88 90 92 93 94 96 97 98 99 100 101 102 103 104 105 106 106 106 107 107 108 109 109 110 111 112 113 115 116 117 117 117 117 117 117 118 119 120 121 122
73 73 75 77 79 79 80 80 81 82 83 83 84 85 87 88 90 91 93 94 95 97 98 99 100 101 102 104 104 105 105 106 106 107 107 108 109 109 110 111 112 113 115 115 115 115 115 116 116 117 117 118
76 75 75 76 77 79 80 80 80 80 81 82 82 83 84 85 86 87 89 90 92 93 94 95 96 97 99 100 101 103 103 104 105 105 106 106 107 108 108 109 110 111 112 113 113 114 114 114 115 115 115 116
78 78 78 77 77 78 79 80 80 80 80 81 81 82 82 83 84 85 86 87 88 89 91 92 93 94 95 96 97 99 100 101 102 103 104 104 105 106 106 107 107 108 109 110 111 112 112 113 113 114 114 115
80 80 80 80 79 78 79 80 80 80 80 80 81 81 82 82 83 84 84 85 86 86 87 88 90 90 91 92 93 94 96 98 99 100 101 102 103 104 104 105 106 106 107 107 108 109 110 111 112 113 113 114
81 81 82 82 81 80 79 79 80 80 81 81 81 82 82 82 83 83 83 84 84 85 85 85 86 87 88 89 90 91 93 94 95 96 98 99 100 101 102 103 104 105 105 106 106 107 107 108 109 110 112 112
82 82 82 82 82 82 81 80 80 80 81 81 81 82 82 83 83 84 84 84 84 83 83 82 83 83 85 86 87 88 90 91 92 93 94 95 97 98 99 100 101 102 103 104 105 105 106 106 107 108 109 110
85 83 83 83 83 83 82 81 81 81 81 81 82 82 82 83 84 85 85 85 85 84 83 82 82 82 83 84 84 85 87 88 89 91 92 92 93 94 96 97 98 99 100 101 102 103 104 104 105 106 107 108
87 85 84 83 83 83 82 82 81 81 81 81 81 82 83 83 84 85 86 86 86 85 85 84 84 84 83 84 84 84 85 86 87 88 89 90 91 92 93 94 95 96 97 98 99 100 101 102 103 103 105 106
88 87 85 84 83 83 82 82 81 81 81 81 81 82 83 83 84 85 86 86 87 87 87 87 86 86 85 85 85 85 85 85 85 86 87 88 89 90 91 91 92 93 94 95 96 97 98 99 100 101 102 103
89 88 87 85 83 83 82 82 81 81 81 81 81 81 82 83 84 85 85 86 86 87 87 88 87 87 86 85 85 85 85 85 85 85 86 87 88 89 89 90 90 90 91 92 93 94 95 96 97 98 100 101
90 88 87 86 84 84 83 82 82 82 81 81 81 81 81 81 82 84 85 85 86 87 87 87 87 87 86 86 86 86 86 86 86 86 86 86 87 88 88 89 89 89 90 90 91 92 93 94 95 96 98 99
Wind_Direction
261 261 260 260 259 260 260 260 261 261 262 263 263 264 264 264 264 263 263 263 263 263 263 264 264 265 265 265 266 266 266 265 265 265 265 266 266 266 266 267 267 267 267 267 268 268 268 268 268 269 269 269
262 262 261 261 261 261 261 262 261 261 261 261 262 262 262 262 263 263 263 263 263 263 264 264 264 265 265 266 267 267 268 268 268 268 267 268 268 268 267 267 267 267 267 267 267 268 267 268 268 269 269 270
263 262 262 262 262 262 262 262 262 262 262 262 262 261 261 261 261 261 261 262 262 262 263 263 263 264 264 265 266 267 267 268 268 269 269 270 270 269 269 268 269 269 268 268 268 268 268 268 269 269 270 270
264 264 264 263 263 263 263 263 263 262 262 262 262 262 262 261 261 261 260 260 260 261 261 262 262 262 263 263 264 265 266 267 267 268 269 269 269 269 269 269 269 270 270 270 270 270 270 270 270 271 271 271
264 264 264 264 264 264 264 264 264 264 263 263 263 262 262 262 262 262 261 261 260 260 260 261 261 262 262 262 262 263 263 264 265 266 267 267 267 268 269 269 268 268 269 269 270 270 271 271 271 272 272 273
263 264 264 264 264 265 265 265 265 265 264 264 264 263 263 263 263 263 263 262 262 262 261 261 261 261 262 262 262 262 262 263 263 264 265 266 266 267 267 266 266 266 267 267 268 269 269 270 270 271 272 273
262 263 263 264 264 264 264 265 265 265 265 264 264 264 264 264 263 264 263 263 263 263 263 263 262 262 262 263 263 263 263 263 263 263 264 265 266 266 265 265 265 265 266 267 267 267 268 268 269 270 271 272
261 261 262 262 263 263 264 264 264 264 264 265 265 265 265 265 265 265 265 264 264 265 264 264 264 264 264 264 264 264 265 265 265 265 265 266 267 266 266 265 265 265 265 266 266 267 267 268 268 268 269 270
260 260 261 261 261 262 262 263 263 263 264 264 264 265 265 265 265 266 266 266 266 266 266 266 266 266 266 265 265 265 266 266 266 266 267 267 268 268 268 268 267 265 265 266 267 267 267 267 267 267 267 268
260 260 261 261 261 261 262 262 262 263 263 263 264 264 264 265 265 265 266 266 266 266 267 267 267 267 267 267 267 267 267 267 267 267 268 268 269 269 270 270 269 268 267 267 268 268 268 269 268 268 267 267
261 261 261 261 261 261 261 262 262 262 263 263 263 264 264 264 265 265 265 266 266 266 266 267 267 267 267 268 268 268 268 268 268 268 268 268 269 269 270 270 270 270 270 269 269 269 269 270 269 269 269 269
262 262 262 262 262 262 262 262 262 262 263 263 263 264 264 264 264 265 265 265 266 266 266 267 267 267 267 267 267 268 268 268 268 268 268 268 269 269 270 270 270 271 271 270 270 270 271 271 271 271 271 271
262 262 262 262 262 262 262 262 262 262 263 263 263 264 264 264 264 264 265 265 265 266 266 266 267 267 267 267 267 267 267 267 267 267 267 268 268 268 269 269 270 270 270 271 271 271 271 271 272 272 272 273
262 262 262 262 262 262 262 262 262 262 262 263 263 263 264 264 264 264 265 265 265 265 266 266 266 267 267 267 267 267 267 266 266 266 266 267 267 267 268 268 269 269 270 270 270 271 271 271 272 272 272 273
261 262 262 262 262 262 262 262 262 262 263 263 263 263 263 264 264 264 265 265 265 265 265 266 266 266 266 266 267 267 267 266 266 266 266 266 266 266 267 267 267 268 268 269 269 270 270 271 271 271 272 272
261 261 262 262 262 261 262 262 262 262 263 263 263 263 263 263 263 264 264 264 265 265 265 265 265 265 265 265 266 266 266 266 266 266 266 266 266 266 266 266 266 267 267 267 268 268 269 269 270 270 271 271
263 262 262 262 262 262 261 261 261 262 262 262 263 263 263 263 263 264 264 264 264 265 265 265 265 265 265 265 265 265 265 266 266 266 266 266 266 266 266 266 266 266 266 266 267 267 267 268 268 269 269 270
264 263 262 262 262 262 262 262 262 262 262 262 262 262 263 263 263 264 264 264 264 265 265 265 265 265 265 265 265 265 265 265 265 265 266 266 266 266 266 266 266 266 266 266 266 266 267 267 267 267 268 268
267 265 263 262 262 262 262 262 262 262 262 262 262 262 263 263 263 263 264 264 264 264 265 265 265 265 265 265 265 265 265 265 265 265 265 265 266 266 266 266 266 266 266 266 266 266 266 267 267 267 267 267
274 270 266 264 262 262 263 263 263 263 263 263 263 263 263 263 263 263 263 264 264 264 264 265 265 265 265 265 265 265 265 265 265 265 265 265 265 265 265 266 266 266 266 266 266 266 266 266 266 267 267 267
278 275 271 268 265 263 263 263 263 263 263 263 263 263 263 264 264 264 264 264 264 264 264 264 264 265 265 265 265 265 265 265 265 265 265 265 265 265 265 265 265 266 266 266 266 266 266 266 266 266 266 267
280 278 275 272 269 266 264 263 263 264 264 264 264 264 264 264 264 264 265 265 265 264 264 264 264 265 265 265 265 266 266 265 265 265 265 264 264 264 264 264 265 265 265 266 266 266 266 266 266 266 266 266
280 279 277 274 272 269 266 265 264 264 264 265 265 265 265 265 265 265 265 265 265 265 265 265 265 265 265 265 265 265 266 265 265 265 265 265 264 264 264 264 264 264 265 265 266 266 266 266 266 266 266 266
280 278 277 275 273 271 269 267 265 265 265 265 266 266 266 266 266 266 266 266 266 267 267 267 267 267 267 266 266 266 266 266 266 266 265 265 265 265 264 264 264 264 264 264 264 265 266 266 266 267 267 267
278 277 276 275 273 272 270 269 267 266 265 265 266 266 267 267 267 267 267 268 268 268 268 268 269 269 269 268 268 267 267 266 266 266 266 266 266 265 265 265 264 264 264 264 264 264 264 265 266 266 267 267
278 276 274 273 273 272 271 270 269 267 266 265 266 266 267 268 268 268 268 269 269 269 269 269 270 270 270 270 270 269 268 268 267 267 267 266 266 266 266 266 265 265 265 265 264 264 264 264 264 265 266 266
278 276 274 272 271 270 270 269 269 268 267 266 266 265 266 267 268 268 269 269 270 270 270 270 270 271 271 271 271 271 270 270 269 268 267 267 267 267 267 267 266 266 266 266 265 265 265 264 264 264 264 265
277 276 274 271 269 268 268 268 268 268 268 267 267 266 266 266 267 268 269 270 271 271 272 272 272 272 272 272 272 272 272 271 271 270 269 268 268 268 268 267 267 267 267 267 267 266 266 266 265 265 265 265
276 275 273 271 269 267 267 266 266 267 267 267 267 267 267 266 267 267 268 269 270 271 272 273 273 274 274 274 274 274 273 273 273 272 272 271 270 269 269 268 268 268 268 268 268 267 267 267 267 267 266 266
275 274 272 270 268 267 266 266 266 266 266 266 267 267 267 267 267 267 268 269 269 270 271 272 273 273 274 274 274 274 274 274 274 274 274 273 272 271 271 270 269 269 269 268 268 268 268 268 268 267 267 267
274 273 271 269 268 266 265 265 265 265 265 265 266 266 267 267 267 267 267 268 269 269 270 271 272 272 273 273 274 274 274 275 275 274 274 274 273 273 273 272 272 271 270 270 270 269 269 269 268 268 268 268